Regional Weather Roundup
Issued by NWS

Home | Current Version | Previous Version | Graphics & Text | Print | Product List | Glossary On
Versions: 1 2 3 4 5 6 7 8 9 10 11 12 13 14 15 16 17 18 19 20 21 22 23 24 25 26 27 28 29 30 31 32 33 34 35 36 37 38 39 40 41 42 43 44 45 46 47 48 49 50
000
ASUS43 KIND 031009
RWRIN

WEATHER ROUNDUP FOR INDIANA
NATIONAL WEATHER SERVICE INDIANAPOLIS IN
600 AM EDT FRI JUL 03 2015

NOTE: "FAIR" INDICATES FEW OR NO CLOUDS BELOW 12,000 FEET WITH NO
SIGNIFICANT WEATHER AND/OR OBSTRUCTIONS TO VISIBILITY.

* - STATION DOES NOT REPORT WEATHER SUCH AS PRECIPITATION OR FOG.

+ - STATION NOT QUALITY CONTROLLED BY THE NATIONAL WEATHER SERVICE.
    USE DATA WITH CAUTION...ESPECIALLY DEWPOINT AND RELATIVE
    HUMIDITY OBSERVATIONS.

INZ001>003-010>013-019-020-031100-
NORTHWEST INDIANA

CITY           SKY/WX    TMP DP  RH WIND       PRES   REMARKS
GARY /AIRPORT/ CLOUDY    59  59 100 CALM      29.96R
KNOX *+        CLOUDY    55  55 100 CALM      29.95R
LA PORTE +     CLOUDY    59  57  96 CALM      29.96S
MICHIGAN CITY+ CLOUDY    54  54 100 CALM      29.96S
MONTICELLO +   CLOUDY    61  57  87 NE7       29.92S
RENSSELAER +   CLOUDY    61  59  94 NE7       29.93F
VALPARAISO     CLOUDY    58  55  90 NE5       29.96R

$$

LMZ046-743>745-031100-
SOUTHERN LAKE MICHIGAN

STATION/POSITION TIME  TEMP    WIND        PRES    WAVE
                       AIR SEA DIR/SP/G            HT
                 (UTC) (F)     (DEG/KT/KT) (MB)    (FT)
BURNS HARBOR     1000   62      90/  6/  8 1014.6F
MICHIGAN CITY    1000   60      90/  8/  9   N/A
5NW MICH CITY    1000   61 63   90/  6/  8   N/A     2

$$

INZ004-005-014>016-021>024-031100-
NORTH CENTRAL INDIANA

CITY           SKY/WX    TMP DP  RH WIND       PRES   REMARKS
GOSHEN         MOCLDY    57  54  89 E5        29.96F
LOGANSPORT +   MOCLDY    59  52  77 E5        29.94S
PERU/GRISSOM   CLOUDY    62  55  77 E7        29.93R
ROCHESTER +    MOCLDY    61  55  82 CALM      29.95S
SOUTH BEND     MOCLDY    59  54  83 NE3       29.97F
WARSAW +         N/A     55  54  94 E5        29.95S

$$

INZ006>009-017-018-025>027-031100-
NORTHEAST INDIANA

CITY           SKY/WX    TMP DP  RH WIND       PRES   REMARKS
ANGOLA *+        N/A     57  54  88 E6        29.97F
AUBURN +       MOCLDY    54  52  94 NE3       29.97F FOG
FORT WAYNE     MOCLDY    59  55  87 E9        29.95F
HUNTINGTON +   PTCLDY    58  53  85 E5        29.95R

$$

INZ028-029-035-036-043>045-051>053-031100-
WEST CENTRAL INDIANA

CITY           SKY/WX    TMP DP  RH WIND       PRES   REMARKS
CRAWFORDSVL +  CLOUDY    62  55  75 NE7       29.90F
GREENCASTLE +  CLOUDY    64  55  72 NE7       29.89S
LAFAYETTE      CLOUDY    62  56  80 NE13      29.91S
TERRE HAUTE    MOCLDY    68  64  87 NE7       29.87R

$$

INZ030>032-037>040-046>048-054>057-064-065-031100-
CENTRAL INDIANA

CITY           SKY/WX    TMP DP  RH WIND       PRES   REMARKS
CP ATTERBURY + CLOUDY    64  61  88 E7        29.88S
FISHERS *+     CLOUDY    59  59 100 NE3       29.91S
FRANKFORT +    CLOUDY    64  57  79 NE7       29.93S
GREENWOOD *+   CLOUDY    63  59  88 NE7       29.89F
INDIANAPOLIS   CLOUDY    63  59  87 NE14      29.88S
-EAGLE CREEK   LGT RAIN  62  59  90 NE6       29.90S
KOKOMO *+      MOCLDY    61  45  55 E6        29.93S
MARION +       MOCLDY    60  53  80 E8        29.94S
MT COMFORT *+  CLOUDY    61 N/A N/A E6        29.90F
SHELBYVILLE    CLOUDY    65  61  87 NE7       29.87F
ZIONSVILLE +   RAIN      65  55  72 E6        29.92R

$$

INZ033-034-041-042-049-050-058-059-031100-
EAST CENTRAL INDIANA

CITY           SKY/WX    TMP DP  RH WIND       PRES   REMARKS
MUNCIE         MOCLDY    61  54  77 E7        29.93S

$$

INZ060-061-067>069-081>083-085>088-031100-
SOUTHWEST INDIANA

CITY           SKY/WX    TMP DP  RH WIND       PRES   REMARKS
EVANSVILLE     CLOUDY    71  69  93 N3        29.84R FOG
HUNTINGBURG *+ CLOUDY    70  66  88 NE5       29.83F
WASHINGTON +   CLOUDY    68  65  88 CALM      29.84S FOG

$$

INZ062-063-066-070>080-084-089>092-031100-
SOUTH CENTRAL AND SOUTHEAST INDIANA

CITY           SKY/WX    TMP DP  RH WIND       PRES   REMARKS
BLOOMINGTON    CLOUDY    69  64  84 E9        29.86S
MADISON *+     CLOUDY    68  64  88 E5        29.88S
NORTH VERNON + CLOUDY    70  70 100 E8        29.87F
SEYMOUR +      CLOUDY    70  68  94 E7        29.86

$$



USA.gov is the U.S. government's official web portal to all federal, state and local government web resources and services.